| time (UTC) | temp F | wind direction | speed knots | gust knots | rain 1hr in | rain 24hr in | rain mn in | humidity % | barometer mb |
| 20260502163530 | 64 | 233 | 1.7 | 2.6 | 0.00 | 0.00 | 0.00 | 41 | 1007.0 |
| 20260502162526 | 64 | 231 | 1.7 | 2.6 | 0.00 | 0.00 | 0.00 | 41 | 1007.1 |
| 20260502161521 | 64 | 238 | 3.5 | 6.1 | 0.00 | 0.00 | 0.00 | 40 | 1007.2 |
| 20260502160537 | 65 | 272 | 4.3 | 7.8 | 0.00 | 0.00 | 0.00 | 38 | 1007.3 |
| 20260502151532 | 69 | 257 | 5.2 | 11.3 | 0.00 | 0.00 | 0.00 | 25 | 1006.8 |
| 20260502150528 | 69 | 278 | 7.0 | 13.0 | 0.00 | 0.00 | 0.00 | 24 | 1006.9 |
| 20260502130551 | 71 | 255 | 7.0 | 12.2 | 0.00 | 0.00 | 0.00 | 22 | 1007.5 |
| 20260502123517 | 71 | 254 | 7.0 | 13.9 | 0.00 | 0.00 | 0.00 | 24 | 1007.8 |
| 20260502122532 | 72 | 233 | 6.1 | 14.8 | 0.00 | 0.00 | 0.00 | 23 | 1008.0 |
| 20260502121527 | 70 | 241 | 6.1 | 9.6 | 0.00 | 0.00 | 0.00 | 24 | 1008.0 |
| 20260502120523 | 70 | 250 | 7.0 | 13.0 | 0.00 | 0.00 | 0.00 | 26 | 1008.2 |
| 20260502115518 | 70 | 244 | 6.1 | 12.2 | 0.00 | 0.00 | 0.00 | 25 | 1008.3 |
| 20260502114533 | 70 | 247 | 7.0 | 13.9 | 0.00 | 0.00 | 0.00 | 26 | 1008.3 |
| 20260502113530 | 70 | 226 | 4.3 | 8.7 | 0.00 | 0.00 | 0.00 | 27 | 1008.7 |
| 20260502112525 | 69 | 237 | 5.2 | 9.6 | 0.00 | 0.00 | 0.00 | 27 | 1008.7 |
| 20260502111540 | 69 | 230 | 6.1 | 12.2 | 0.00 | 0.00 | 0.00 | 29 | 1008.8 |
| 20260502110516 | 68 | 229 | 5.2 | 9.6 | 0.00 | 0.00 | 0.00 | 30 | 1008.9 |
| 20260502105531 | 68 | 240 | 5.2 | 9.6 | 0.00 | 0.00 | 0.00 | 32 | 1009.0 |
| 20260502104527 | 68 | 218 | 4.3 | 9.6 | 0.00 | 0.00 | 0.00 | 32 | 1009.1 |
| 20260502103542 | 67 | 253 | 6.1 | 11.3 | 0.00 | 0.00 | 0.00 | 33 | 1009.3 |
| 20260502102517 | 67 | 228 | 6.1 | 12.2 | 0.00 | 0.00 | 0.00 | 33 | 1009.1 |
| 20260502100547 | 66 | 253 | 6.1 | 11.3 | 0.00 | 0.00 | 0.00 | 35 | 1009.4 |
| 20260502091522 | 64 | 251 | 7.0 | 13.0 | 0.00 | 0.00 | 0.00 | 39 | 1009.7 |
| 20260502090517 | 64 | 259 | 7.0 | 13.0 | 0.00 | 0.00 | 0.00 | 39 | 1009.7 |
| 20260502071524 | 60 | 241 | 4.3 | 7.8 | 0.00 | 0.00 | 0.00 | 46 | 1010.8 |
| 20260502070540 | 60 | 244 | 5.2 | 11.3 | 0.00 | 0.00 | 0.00 | 46 | 1010.9 |
| 20260502065515 | 59 | 248 | 4.3 | 7.8 | 0.00 | 0.00 | 0.00 | 47 | 1011.0 |
| 20260502064531 | 59 | 251 | 6.1 | 12.2 | 0.00 | 0.00 | 0.00 | 48 | 1011.0 |
| 20260502063546 | 58 | 242 | 4.3 | 7.8 | 0.00 | 0.00 | 0.00 | 49 | 1011.1 |
| 20260502062522 | 58 | 250 | 4.3 | 8.7 | 0.00 | 0.00 | 0.00 | 50 | 1011.0 |
| 20260502061517 | 58 | 249 | 5.2 | 11.3 | 0.00 | 0.00 | 0.00 | 50 | 1010.9 |
| 20260502060533 | 57 | 257 | 5.2 | 8.7 | 0.00 | 0.00 | 0.00 | 51 | 1010.9 |
| 20260502055528 | 57 | 256 | 4.3 | 7.0 | 0.00 | 0.00 | 0.00 | 52 | 1010.9 |
| 20260502054523 | 56 | 251 | 3.5 | 7.0 | 0.00 | 0.00 | 0.00 | 53 | 1011.0 |
| 20260502053517 | 56 | 219 | 1.7 | 3.5 | 0.00 | 0.00 | 0.00 | 55 | 1011.2 |
| 20260502052533 | 55 | 244 | 2.6 | 5.2 | 0.00 | 0.00 | 0.00 | 56 | 1011.2 |
| 20260502051528 | 55 | 219 | 1.7 | 3.5 | 0.00 | 0.00 | 0.00 | 56 | 1011.2 |
| 20260502050524 | 54 | 229 | 1.7 | 6.1 | 0.00 | 0.00 | 0.00 | 57 | 1011.1 |
| 20260502045519 | 54 | 216 | 1.7 | 5.2 | 0.00 | 0.00 | 0.00 | 58 | 1011.2 |
| 20260502044534 | 53 | 208 | 0.9 | 3.5 | 0.00 | 0.00 | 0.00 | 59 | 1011.1 |
| 20260502043530 | 52 | 239 | 1.7 | 6.1 | 0.00 | 0.00 | 0.00 | 60 | 1011.2 |
| 20260502042605 | 52 | 224 | 2.6 | 5.2 | 0.00 | 0.00 | 0.00 | 61 | 1011.3 |
| 20260502041520 | 52 | 228 | 0.9 | 2.6 | 0.00 | 0.00 | 0.00 | 61 | 1011.4 |
| 20260502040516 | 52 | 203 | 1.7 | 3.5 | 0.00 | 0.00 | 0.00 | 61 | 1011.4 |
| 20260502035531 | 51 | 209 | 0.9 | 2.6 | 0.00 | 0.00 | 0.00 | 62 | 1011.5 |
| 20260502034526 | 50 | 213 | 0.0 | 1.7 | 0.00 | 0.00 | 0.00 | 63 | 1011.6 |
| 20260502033542 | 50 | 0.0 | 0.0 | 0.00 | 0.00 | 0.00 | 63 | 1011.6 | |
| 20260502032516 | 51 | 225 | 0.0 | 1.7 | 0.00 | 0.00 | 0.00 | 63 | 1011.7 |
| 20260502031532 | 51 | 231 | 1.7 | 2.6 | 0.00 | 0.00 | 0.00 | 61 | 1011.8 |
| 20260502030527 | 51 | 231 | 1.7 | 5.2 | 0.00 | 0.00 | 0.00 | 61 | 1011.8 |
| 20260502025523 | 52 | 234 | 1.7 | 6.1 | 0.00 | 0.00 | 0.00 | 60 | 1011.9 |
| 20260502024517 | 52 | 212 | 0.9 | 2.6 | 0.00 | 0.00 | 0.00 | 60 | 1012.0 |
| 20260502023533 | 53 | 242 | 1.7 | 7.0 | 0.00 | 0.00 | 0.00 | 59 | 1012.1 |
| 20260502022528 | 53 | 220 | 2.6 | 5.2 | 0.00 | 0.00 | 0.00 | 59 | 1012.2 |
| 20260502021525 | 53 | 223 | 1.7 | 5.2 | 0.00 | 0.00 | 0.00 | 58 | 1012.2 |
| 20260502020519 | 54 | 223 | 2.6 | 6.1 | 0.00 | 0.00 | 0.00 | 57 | 1012.3 |
| 20260502015535 | 54 | 235 | 3.5 | 7.0 | 0.00 | 0.00 | 0.00 | 56 | 1012.4 |
| 20260502014530 | 54 | 225 | 2.6 | 5.2 | 0.00 | 0.00 | 0.00 | 57 | 1012.4 |
| 20260502013525 | 54 | 231 | 1.7 | 5.2 | 0.00 | 0.00 | 0.00 | 56 | 1012.6 |
| 20260502012520 | 55 | 234 | 2.6 | 7.0 | 0.00 | 0.00 | 0.00 | 55 | 1012.6 |
| 20260502011516 | 55 | 228 | 2.6 | 5.2 | 0.00 | 0.00 | 0.00 | 54 | 1012.6 |
| 20260502010532 | 55 | 221 | 1.7 | 5.2 | 0.00 | 0.00 | 0.00 | 54 | 1012.6 |
| 20260502005526 | 55 | 217 | 1.7 | 5.2 | 0.00 | 0.00 | 0.00 | 54 | 1012.7 |
| 20260502004522 | 55 | 227 | 1.7 | 3.5 | 0.00 | 0.00 | 0.00 | 54 | 1012.9 |
| 20260502003517 | 56 | 227 | 1.7 | 5.2 | 0.00 | 0.00 | 0.00 | 53 | 1013.0 |
| 20260502002533 | 56 | 219 | 1.7 | 2.6 | 0.00 | 0.00 | 0.00 | 52 | 1013.1 |
| 20260502001528 | 57 | 224 | 1.7 | 5.2 | 0.00 | 0.00 | 0.00 | 51 | 1013.1 |
| 20260502000523 | 57 | 234 | 1.7 | 6.1 | 0.00 | 0.00 | 0.00 | 50 | 1013.1 |
| 20260501235519 | 57 | 215 | 1.7 | 5.2 | 0.00 | 0.00 | 0.00 | 50 | 1013.1 |
| 20260501234535 | 58 | 231 | 3.5 | 8.7 | 0.00 | 0.00 | 0.00 | 49 | 1013.3 |
| 20260501233528 | 58 | 234 | 2.6 | 6.1 | 0.00 | 0.00 | 0.00 | 49 | 1013.3 |
| 20260501232524 | 59 | 217 | 1.7 | 3.5 | 0.00 | 0.00 | 0.00 | 47 | 1013.5 |
| 20260501231520 | 60 | 232 | 3.5 | 7.0 | 0.00 | 0.00 | 0.00 | 46 | 1013.5 |
| 20260501230555 | 59 | 230 | 2.6 | 7.0 | 0.00 | 0.00 | 0.00 | 46 | 1013.6 |
| 20260501225530 | 60 | 241 | 2.6 | 5.2 | 0.00 | 0.00 | 0.00 | 46 | 1013.6 |
| 20260501224546 | 60 | 231 | 1.7 | 5.2 | 0.00 | 0.00 | 0.00 | 44 | 1013.7 |
| 20260501223521 | 61 | 213 | 1.7 | 7.0 | 0.00 | 0.00 | 0.00 | 44 | 1013.6 |
| 20260501222517 | 61 | 227 | 3.5 | 9.6 | 0.00 | 0.00 | 0.00 | 43 | 1013.6 |
| 20260501221532 | 62 | 225 | 4.3 | 11.3 | 0.00 | 0.00 | 0.00 | 43 | 1013.7 |
| 20260501220528 | 61 | 228 | 4.3 | 11.3 | 0.00 | 0.00 | 0.00 | 43 | 1013.6 |
| 20260501215523 | 62 | 224 | 2.6 | 7.8 | 0.00 | 0.00 | 0.00 | 42 | 1013.7 |
| 20260501214539 | 63 | 242 | 4.3 | 8.7 | 0.00 | 0.00 | 0.00 | 41 | 1013.7 |
| 20260501213533 | 63 | 236 | 4.3 | 11.3 | 0.00 | 0.00 | 0.00 | 40 | 1013.8 |
| 20260501212529 | 64 | 239 | 4.3 | 8.7 | 0.00 | 0.00 | 0.00 | 39 | 1013.8 |
| 20260501211523 | 63 | 247 | 5.2 | 9.6 | 0.00 | 0.00 | 0.00 | 39 | 1013.8 |
| 20260501210519 | 63 | 212 | 1.7 | 2.6 | 0.00 | 0.00 | 0.00 | 40 | 1014.1 |
| 20260501205535 | 64 | 244 | 4.3 | 7.0 | 0.00 | 0.00 | 0.00 | 39 | 1014.0 |
| 20260501204530 | 64 | 239 | 3.5 | 7.8 | 0.00 | 0.00 | 0.00 | 38 | 1014.0 |
| 20260501203525 | 64 | 223 | 2.6 | 5.2 | 0.00 | 0.00 | 0.00 | 39 | 1013.9 |
| 20260501202521 | 64 | 226 | 1.7 | 5.2 | 0.00 | 0.00 | 0.00 | 38 | 1014.0 |
| 20260501201517 | 64 | 224 | 1.7 | 5.2 | 0.00 | 0.00 | 0.00 | 38 | 1014.2 |
| 20260501200552 | 63 | 202 | 0.9 | 2.6 | 0.00 | 0.00 | 0.00 | 39 | 1014.2 |
| 20260501195528 | 63 | 202 | 0.9 | 1.7 | 0.00 | 0.00 | 0.00 | 38 | 1014.0 |
| 20260501194523 | 63 | 211 | 0.9 | 3.5 | 0.00 | 0.00 | 0.00 | 37 | 1014.1 |
| 20260501193519 | 64 | 205 | 0.0 | 1.7 | 0.00 | 0.00 | 0.00 | 36 | 1014.2 |
| 20260501192554 | 64 | 209 | 0.9 | 2.6 | 0.00 | 0.00 | 0.00 | 35 | 1014.1 |
| 20260501191530 | 65 | 205 | 0.0 | 0.9 | 0.00 | 0.00 | 0.00 | 35 | 1014.1 |
| 20260501190525 | 68 | 201 | 0.0 | 1.7 | 0.00 | 0.00 | 0.00 | 33 | 1014.0 |
| 20260501185520 | 69 | 221 | 0.9 | 1.7 | 0.00 | 0.00 | 0.00 | 31 | 1014.0 |
| 20260501184535 | 70 | 237 | 1.7 | 3.5 | 0.00 | 0.00 | 0.00 | 30 | 1013.8 |
| 20260501183530 | 71 | 255 | 4.3 | 7.0 | 0.00 | 0.00 | 0.00 | 29 | 1013.8 |
| 20260501182525 | 72 | 247 | 4.3 | 7.8 | 0.00 | 0.00 | 0.00 | 29 | 1013.9 |
| 20260501181520 | 72 | 249 | 4.3 | 12.2 | 0.00 | 0.00 | 0.00 | 28 | 1013.9 |
| 20260501180536 | 73 | 242 | 5.2 | 11.3 | 0.00 | 0.00 | 0.00 | 27 | 1013.9 |
| 20260501175531 | 73 | 258 | 5.2 | 9.6 | 0.00 | 0.00 | 0.00 | 27 | 1013.8 |